Regional Weather Roundup
Issued by NWS

Home | Current Version | Previous Version | Graphics & Text | Print | Product List | Glossary On
Versions: 1 2 3 4 5 6 7 8 9 10 11 12 13 14 15 16 17 18 19 20 21 22 23 24 25 26 27 28 29 30 31 32 33 34 35 36 37 38 39 40 41 42 43 44 45 46 47 48 49 50
000
ASUS43 KOAX 280302
RWRNE

WEATHER ROUNDUP FOR NEBRASKA
NATIONAL WEATHER SERVICE OMAHA NE
1000 PM CDT FRI MAY 27 2016

NOTES: SATELLITE DATA IS BEING USED TO AUGMENT CLOUD COVER ABOVE
       12000 FEET.
       "FAIR" INDICATES FEW OR NO CLOUDS BELOW 12,000 FEET WITH NO
       SIGNIFICANT WEATHER AND/OR OBSTRUCTIONS TO VISIBILITY.

  * THESE STATIONS DO NOT REPORT WEATHER SUCH AS RAIN...SNOW OR FOG.

NEZ001>004-019>022-054>056-280400-
NEBRASKA PANHANDLE

CITY           SKY/WX    TMP DP  RH WIND       PRES   REMARKS
SCOTTSBLUFF    CLOUDY    53  45  74 NW3       29.88R
ALLIANCE       PTCLDY    51  46  83 CALM      29.86R
CHADRON        MOCLDY    51  46  83 W3        29.85R
SIDNEY         CLEAR     49  46  90 N5        29.89R
$$

NEZ057>060-069>072-079>082-280400-
SOUTHWEST NEBRASKA

CITY           SKY/WX    TMP DP  RH WIND       PRES   REMARKS
NORTH PLATTE   CLOUDY    56  52  86 CALM      29.80R
IMPERIAL       PTCLDY    52  48  86 NW5       29.82R
LEXINGTON      CLOUDY    60  52  76 N16       29.74S
MCCOOK         LGT RAIN  55  50  83 N12       29.77S
$$

NEZ005>010-023>029-035>040-094-280400-
NORTH CENTRAL NEBRASKA

CITY           SKY/WX    TMP DP  RH WIND       PRES   REMARKS
VALENTINE      MOCLDY    59  49  69 NE3       29.83R
AINSWORTH      CLOUDY    58  51  78 N7        29.80S
BROKEN BOW     CLOUDY    62  57  83 NW8       29.74R
O`NEILL        CLOUDY    64  59  85 N7        29.76R
ORD            TSTM      58  53  84 E13       29.77R
$$

NEZ041-046>049-061>064-073>077-083>087-280400-
SOUTH CENTRAL NEBRASKA

CITY           SKY/WX    TMP DP  RH WIND       PRES   REMARKS
GRAND ISLAND   LGT RAIN  59  57  93 E26       29.72F
HASTINGS       LGT RAIN  58  53  84 E23G39    29.67F
KEARNEY *      MOCLDY    61  55  82 NE8       29.72R
YORK           LGT RAIN  59  57  94 S6        29.79R
$$

NEZ011>018-030>034-042>045-280400-
NORTHEAST NEBRASKA

CITY           SKY/WX    TMP DP  RH WIND       PRES   REMARKS
NORFOLK        RAIN      59  56  89 W9        29.76R FOG
ALBION         LGT RAIN  60  53  76 E7        29.77R
BLAIR          LGT RAIN  70  64  80 SE10      29.72R
FREMONT        CLOUDY    69  62  78 E8        29.71S
TEKAMAH        CLOUDY    71  61  70 SE10      29.71R
$$

NEZ050>053-065>068-078-088>093-280400-
SOUTHEAST NEBRASKA

CITY           SKY/WX    TMP DP  RH WIND       PRES   REMARKS
LINCOLN        HVY RAIN  60  57  89 W13       29.76R FOG
OMAHA EPPLEY   CLOUDY    72  62  71 SE12      29.71R
FALLS CITY     LGT RAIN  62  58  86 W3        29.76R
NEBRASKA CITY  RAIN      61  61 100 W14G20    29.77R
PLATTSMOUTH    LGT RAIN  71  66  84 SW24G31   29.77R
$$

NEZ044-045-051>053-067-280400-
OMAHA AREA

CITY           SKY/WX    TMP DP  RH WIND       PRES   REMARKS
OMAHA EPPLEY   CLOUDY    72  62  71 SE12      29.71R
BLAIR          LGT RAIN  70  64  80 SE10      29.72R
FREMONT        CLOUDY    69  62  78 E8        29.71S
OFFUTT AFB     LGT RAIN  71  64  81 SE14      29.72R
PLATTSMOUTH    LGT RAIN  71  66  84 SW24G31   29.77R
$$




USA.gov is the U.S. government's official web portal to all federal, state and local government web resources and services.